COSMOS 2434 (721)

Last updated on Sat Nov 01 2025 00:03:18 GMT+0000 (Coordinated Universal Time)

1 32393U 07065A 25304.28601668 .00000022 00000+0 00000+0 0 9991 2 32393 64.3146 199.6358 0003176 65.8921 107.4717 2.13101218138890
UTC large
Height (km)
Speed (km/s)
/
Latitude / Longitude
Inclination (degrees)
Orbital Period (minutes)
Azimuth
Elevation
Range (km)
Doppler Factor

Next 0 passes for location: London (51.5072 / 0.1276)

Sorry there are no passes over London.